Location: Artiguedieu
(43.5000°N, 0.5454°E)
Time: 19:20:12
(UTC+00:00)

Vanguard 1 - Pass Details

Date: 29 July 2021
Orbit: 652 x 3831 km, 34.3° (Epoch: 19 September)

Event Time Altitude Azimuth Distance (km) Brightness Sun altitude
Rises 14:24:56 0° 264° (W) 3,864 13.7 51.4°
Reaches altitude 10° 14:27:15 10° 257° (WSW) 3,169 13.5 51.0°
Maximum altitude 14:34:53 46° 187° (S) 2,250 12.9 49.8°
Drops below altitude 10° 14:48:35 10° 121° (ESE) 5,550 13.7 47.6°
Sets 14:54:09 0° 116° (ESE) 7,041 14.1 46.6°
